Time,TemperatureF,DewpointF,PressureIn,WindDirection,WindDirectionDegrees,WindSpeedMPH,WindSpeedGustMPH,Humidity,HourlyPrecipIn,Conditions,Clouds,dailyrainin,SolarRadiationWatts/m^2,SoftwareType,DateUTC
2013-09-23 00:03:00,63.2,55.9,29.72,SSE,157,5.0,13.0,77,0.00,,SKC,0.00,0.00,VWS V14.00,2013-09-23 05:03:00,
2013-09-23 00:10:00,63.1,55.8,29.72,SE,140,7.0,12.0,77,0.00,,SKC,0.00,0.00,VWS V14.00,2013-09-23 05:10:00,
2013-09-23 00:15:00,63.0,56.0,29.72,SE,137,6.0,16.0,78,0.00,,SKC,0.00,0.00,VWS V14.00,2013-09-23 05:15:00,
2013-09-23 00:20:00,63.0,56.0,29.72,South,170,4.0,10.0,78,0.00,,SKC,0.00,0.00,VWS V14.00,2013-09-23 05:20:00,
2013-09-23 00:25:00,62.9,55.9,29.72,SSW,196,4.0,12.0,78,0.00,,SKC,0.00,0.00,VWS V14.00,2013-09-23 05:25:00,
2013-09-23 00:30:00,62.7,55.8,29.72,SSE,157,12.0,19.0,78,0.00,,SKC,0.00,0.00,VWS V14.00,2013-09-23 05:30:00,
2013-09-23 00:35:00,62.7,56.1,29.73,SSE,164,5.0,11.0,79,0.00,,SKC,0.00,0.00,VWS V14.00,2013-09-23 05:35:00,
2013-09-23 00:40:00,62.6,56.0,29.73,SE,132,7.0,13.0,79,0.00,,SKC,0.00,0.00,VWS V14.00,2013-09-23 05:40:00,
2013-09-23 00:45:00,62.5,55.9,29.73,SE,140,7.0,14.0,79,0.00,,SKC,0.00,0.00,VWS V14.00,2013-09-23 05:45:00,
2013-09-23 00:50:00,62.5,55.6,29.73,SSE,156,9.0,14.0,78,0.00,,SKC,0.00,0.00,VWS V14.00,2013-09-23 05:50:00,
2013-09-23 00:55:00,62.5,55.6,29.73,ESE,120,10.0,17.0,78,0.00,,SKC,0.00,0.00,VWS V14.00,2013-09-23 05:55:00,
2013-09-23 01:00:00,62.5,55.6,29.73,SSW,193,10.0,14.0,78,0.00,,SKC,0.00,0.00,VWS V14.00,2013-09-23 06:00:00,
2013-09-23 01:05:00,62.5,55.6,29.73,SSE,162,6.0,11.0,78,0.00,,SKC,0.00,0.00,VWS V14.00,2013-09-23 06:05:00,
2013-09-23 01:10:00,62.4,55.5,29.73,SSE,150,10.0,17.0,78,0.00,,SKC,0.00,0.00,VWS V14.00,2013-09-23 06:10:00,
2013-09-23 01:15:00,62.5,55.6,29.74,SSE,151,7.0,15.0,78,0.00,,SKC,0.00,0.00,VWS V14.00,2013-09-23 06:15:00,
2013-09-23 01:20:00,62.5,55.6,29.74,SE,137,4.0,16.0,78,0.00,,SKC,0.00,0.00,VWS V14.00,2013-09-23 06:20:00,
2013-09-23 01:25:00,62.5,55.6,29.74,SE,134,7.0,13.0,78,0.00,,SKC,0.00,0.00,VWS V14.00,2013-09-23 06:25:00,
2013-09-23 01:30:00,62.4,55.5,29.74,South,174,5.0,11.0,78,0.00,,SKC,0.00,0.00,VWS V14.00,2013-09-23 06:30:00,
2013-09-23 01:35:00,62.3,55.4,29.74,South,171,3.0,10.0,78,0.00,,SKC,0.00,0.00,VWS V14.00,2013-09-23 06:35:00,
2013-09-23 01:40:00,62.3,55.4,29.74,SE,141,5.0,16.0,78,0.00,,SKC,0.00,0.00,VWS V14.00,2013-09-23 06:40:00,
2013-09-23 01:45:00,62.3,55.4,29.74,ESE,108,6.0,14.0,78,0.00,,SKC,0.00,0.00,VWS V14.00,2013-09-23 06:45:00,
2013-09-23 01:50:00,62.3,55.4,29.74,SSE,148,9.0,13.0,78,0.00,,SKC,0.00,0.00,VWS V14.00,2013-09-23 06:50:00,
2013-09-23 01:55:00,62.2,55.3,29.74,SSE,150,7.0,12.0,78,0.00,,SKC,0.00,0.00,VWS V14.00,2013-09-23 06:55:00,
2013-09-23 02:00:00,62.0,55.4,29.74,SE,124,5.0,16.0,79,0.00,,SKC,0.00,0.00,VWS V14.00,2013-09-23 07:00:00,
2013-09-23 02:05:00,61.8,55.2,29.74,SSE,161,5.0,10.0,79,0.00,,SKC,0.00,0.00,VWS V14.00,2013-09-23 07:05:00,
2013-09-23 02:10:00,61.5,54.9,29.74,SSE,153,10.0,11.0,79,0.00,,SKC,0.00,0.00,VWS V14.00,2013-09-23 07:10:00,
2013-09-23 02:15:00,61.3,55.1,29.74,SE,134,10.0,12.0,80,0.00,,SKC,0.00,0.00,VWS V14.00,2013-09-23 07:15:00,
2013-09-23 02:20:00,61.0,54.8,29.74,SE,145,6.0,15.0,80,0.00,,SKC,0.00,0.00,VWS V14.00,2013-09-23 07:20:00,
2013-09-23 02:25:00,60.8,54.6,29.74,SE,146,9.0,13.0,80,0.00,,SKC,0.00,0.00,VWS V14.00,2013-09-23 07:25:00,
2013-09-23 02:30:00,60.7,54.8,29.74,ESE,119,8.0,12.0,81,0.00,,SKC,0.00,0.00,VWS V14.00,2013-09-23 07:30:00,
2013-09-23 02:35:00,60.6,54.8,29.74,ESE,113,10.0,12.0,81,0.00,,SKC,0.00,0.00,VWS V14.00,2013-09-23 07:35:00,
2013-09-23 02:41:00,60.5,54.7,29.74,SSE,153,10.0,14.0,81,0.00,,SKC,0.00,0.00,VWS V14.00,2013-09-23 07:41:00,
2013-09-23 02:46:00,60.4,54.5,29.74,SE,143,10.0,13.0,81,0.00,,SKC,0.00,0.00,VWS V14.00,2013-09-23 07:46:00,
2013-09-23 02:51:00,60.3,54.5,29.74,ESE,122,9.0,11.0,81,0.00,,SKC,0.00,0.00,VWS V14.00,2013-09-23 07:51:00,
2013-09-23 02:56:00,60.1,54.3,29.73,SE,142,11.0,13.0,81,0.00,,SKC,0.00,0.00,VWS V14.00,2013-09-23 07:56:00,
2013-09-23 03:01:00,60.0,54.2,29.73,ESE,105,10.0,14.0,81,0.00,,SKC,0.00,0.00,VWS V14.00,2013-09-23 08:01:00,
2013-09-23 03:06:00,59.8,54.0,29.73,SE,140,9.0,13.0,81,0.00,,SKC,0.00,0.00,VWS V14.00,2013-09-23 08:06:00,
2013-09-23 03:11:00,59.8,54.3,29.73,SE,125,10.0,13.0,82,0.00,,SKC,0.00,0.00,VWS V14.00,2013-09-23 08:11:00,
2013-09-23 03:16:00,59.6,54.1,29.73,SE,141,10.0,16.0,82,0.00,,SKC,0.00,0.00,VWS V14.00,2013-09-23 08:16:00,
2013-09-23 03:21:00,59.6,54.1,29.73,SE,134,11.0,14.0,82,0.00,,SKC,0.00,0.00,VWS V14.00,2013-09-23 08:21:00,
2013-09-23 03:26:00,59.5,54.0,29.73,SE,144,11.0,15.0,82,0.00,,SKC,0.00,0.00,VWS V14.00,2013-09-23 08:26:00,
2013-09-23 03:31:00,59.4,53.9,29.73,SSE,154,11.0,15.0,82,0.00,,SKC,0.00,0.00,VWS V14.00,2013-09-23 08:31:00,
2013-09-23 03:36:00,59.3,53.8,29.73,SE,136,15.0,15.0,82,0.00,,SKC,0.00,0.00,VWS V14.00,2013-09-23 08:36:00,
2013-09-23 03:41:00,59.2,53.7,29.73,SE,132,7.0,17.0,82,0.00,,SKC,0.00,0.00,VWS V14.00,2013-09-23 08:41:00,
2013-09-23 03:46:00,59.1,53.6,29.72,SE,138,11.0,13.0,82,0.00,,SKC,0.00,0.00,VWS V14.00,2013-09-23 08:46:00,
2013-09-23 03:51:00,59.0,53.5,29.72,SE,128,12.0,15.0,82,0.00,,SKC,0.00,0.00,VWS V14.00,2013-09-23 08:51:00,
2013-09-23 03:56:00,58.8,53.7,29.72,SSE,167,7.0,14.0,83,0.00,,SKC,0.00,0.00,VWS V14.00,2013-09-23 08:56:00,
2013-09-23 04:01:00,58.7,53.6,29.73,SE,140,11.0,16.0,83,0.00,,SKC,0.00,0.00,VWS V14.00,2013-09-23 09:01:00,
2013-09-23 04:06:00,58.6,53.5,29.73,SE,130,10.0,13.0,83,0.00,,SKC,0.00,0.00,VWS V14.00,2013-09-23 09:06:00,
2013-09-23 04:11:00,58.5,53.4,29.73,SE,145,6.0,14.0,83,0.00,,SKC,0.00,0.00,VWS V14.00,2013-09-23 09:11:00,
2013-09-23 04:16:00,58.4,53.3,29.73,SE,142,15.0,15.0,83,0.00,,SKC,0.00,0.00,VWS V14.00,2013-09-23 09:16:00,
2013-09-23 04:21:00,58.3,53.2,29.73,ESE,115,3.0,11.0,83,0.00,,SKC,0.00,0.00,VWS V14.00,2013-09-23 09:21:00,
2013-09-23 04:26:00,58.2,53.1,29.73,SSE,155,6.0,12.0,83,0.00,,SKC,0.00,0.00,VWS V14.00,2013-09-23 09:26:00,
2013-09-23 04:31:00,58.1,53.0,29.73,SSE,150,9.0,14.0,83,0.00,,SKC,0.00,0.00,VWS V14.00,2013-09-23 09:31:00,
2013-09-23 04:36:00,58.0,52.9,29.73,ESE,122,6.0,12.0,83,0.00,,SKC,0.00,0.00,VWS V14.00,2013-09-23 09:36:00,
2013-09-23 04:41:00,57.8,52.7,29.73,ESE,123,5.0,14.0,83,0.00,,SKC,0.00,0.00,VWS V14.00,2013-09-23 09:41:00,
2013-09-23 04:46:00,57.6,52.5,29.73,SE,144,11.0,16.0,83,0.00,,SKC,0.00,0.00,VWS V14.00,2013-09-23 09:46:00,
2013-09-23 04:51:00,57.5,52.7,29.73,SSE,150,10.0,14.0,84,0.00,,SKC,0.00,0.00,VWS V14.00,2013-09-23 09:51:00,
2013-09-23 04:56:00,57.4,52.6,29.73,SE,136,8.0,16.0,84,0.00,,SKC,0.00,0.00,VWS V14.00,2013-09-23 09:56:00,
2013-09-23 05:01:00,57.3,52.5,29.74,SE,138,10.0,11.0,84,0.00,,SKC,0.00,0.00,VWS V14.00,2013-09-23 10:01:00,
2013-09-23 05:06:00,57.1,52.3,29.74,SSE,154,5.0,12.0,84,0.00,,SKC,0.00,0.00,VWS V14.00,2013-09-23 10:06:00,
2013-09-23 05:11:00,57.0,52.2,29.74,SSE,153,9.0,12.0,84,0.00,,SKC,0.00,0.00,VWS V14.00,2013-09-23 10:11:00,
2013-09-23 05:16:00,56.8,52.0,29.74,ESE,121,7.0,14.0,84,0.00,,SKC,0.00,0.00,VWS V14.00,2013-09-23 10:16:00,
2013-09-23 05:21:00,56.7,51.9,29.74,SE,131,8.0,11.0,84,0.00,,SKC,0.00,0.00,VWS V14.00,2013-09-23 10:21:00,
2013-09-23 05:26:00,56.6,52.2,29.74,ESE,122,4.0,12.0,85,0.00,,SKC,0.00,0.00,VWS V14.00,2013-09-23 10:26:00,
2013-09-23 05:31:00,56.5,52.0,29.74,SE,129,5.0,10.0,85,0.00,,SKC,0.00,0.00,VWS V14.00,2013-09-23 10:31:00,
2013-09-23 05:36:00,56.4,52.0,29.74,ESE,121,7.0,10.0,85,0.00,,SKC,0.00,0.00,VWS V14.00,2013-09-23 10:36:00,
2013-09-23 05:41:00,56.3,51.9,29.74,SE,143,7.0,10.0,85,0.00,,SKC,0.00,0.00,VWS V14.00,2013-09-23 10:41:00,
2013-09-23 05:46:00,56.3,51.9,29.74,SSE,148,4.0,13.0,85,0.00,,SKC,0.00,0.00,VWS V14.00,2013-09-23 10:46:00,
2013-09-23 05:51:00,56.2,51.8,29.74,SE,145,10.0,13.0,85,0.00,,SKC,0.00,0.00,VWS V14.00,2013-09-23 10:51:00,
2013-09-23 05:56:00,56.2,51.4,29.75,ESE,121,8.0,13.0,84,0.00,,SKC,0.00,0.00,VWS V14.00,2013-09-23 10:56:00,
2013-09-23 06:01:00,56.1,51.3,29.74,SSE,150,10.0,14.0,84,0.00,,SKC,0.00,0.00,VWS V14.00,2013-09-23 11:01:00,
2013-09-23 06:06:00,56.1,51.3,29.74,SSE,159,9.0,15.0,84,0.00,,SKC,0.00,0.00,VWS V14.00,2013-09-23 11:06:00,
2013-09-23 06:12:00,56.1,51.3,29.75,SE,143,4.0,15.0,84,0.00,,SKC,0.00,0.00,VWS V14.00,2013-09-23 11:12:00,
2013-09-23 06:17:00,56.2,51.4,29.75,SE,146,6.0,14.0,84,0.00,,SKC,0.00,0.00,VWS V14.00,2013-09-23 11:17:00,
2013-09-23 06:22:00,56.2,51.4,29.75,SSE,149,10.0,15.0,84,0.00,,SKC,0.00,0.00,VWS V14.00,2013-09-23 11:22:00,
2013-09-23 06:27:00,56.2,51.4,29.75,ESE,107,9.0,14.0,84,0.00,,SKC,0.00,0.00,VWS V14.00,2013-09-23 11:27:00,
2013-09-23 06:32:00,56.0,51.2,29.75,SE,128,9.0,11.0,84,0.00,,SKC,0.00,0.00,VWS V14.00,2013-09-23 11:32:00,
2013-09-23 06:37:00,55.9,51.1,29.75,ESE,107,5.0,12.0,84,0.00,,SKC,0.00,0.00,VWS V14.00,2013-09-23 11:37:00,
2013-09-23 06:42:00,55.8,51.0,29.75,SSE,153,8.0,14.0,84,0.00,,SKC,0.00,0.00,VWS V14.00,2013-09-23 11:42:00,
2013-09-23 06:47:00,55.7,51.0,29.75,SSE,150,5.0,16.0,84,0.00,,SKC,0.00,0.00,VWS V14.00,2013-09-23 11:47:00,
2013-09-23 06:52:00,55.5,51.1,29.75,SE,128,7.0,13.0,85,0.00,,SKC,0.00,0.00,VWS V14.00,2013-09-23 11:52:00,
2013-09-23 06:57:00,55.3,50.9,29.75,SE,127,6.0,13.0,85,0.00,,SKC,0.00,5.00,VWS V14.00,2013-09-23 11:57:00,
2013-09-23 07:02:00,55.2,50.8,29.75,SE,133,9.0,12.0,85,0.00,,SKC,0.00,7.00,VWS V14.00,2013-09-23 12:02:00,
2013-09-23 07:07:00,55.1,50.7,29.75,SE,132,11.0,11.0,85,0.00,,SKC,0.00,7.00,VWS V14.00,2013-09-23 12:07:00,
2013-09-23 07:12:00,55.0,50.6,29.75,South,190,5.0,12.0,85,0.00,,SKC,0.00,9.00,VWS V14.00,2013-09-23 12:12:00,
2013-09-23 07:17:00,55.0,50.6,29.75,SE,138,11.0,15.0,85,0.00,,SKC,0.00,12.00,VWS V14.00,2013-09-23 12:17:00,
2013-09-23 07:22:00,55.0,50.6,29.75,SE,129,10.0,13.0,85,0.00,,SKC,0.00,18.00,VWS V14.00,2013-09-23 12:22:00,
2013-09-23 07:27:00,55.0,50.6,29.75,SE,124,7.0,14.0,85,0.00,,SKC,0.00,23.00,VWS V14.00,2013-09-23 12:27:00,
2013-09-23 07:32:00,55.1,50.7,29.75,East,94,12.0,15.0,85,0.00,,SKC,0.00,35.00,VWS V14.00,2013-09-23 12:32:00,
2013-09-23 07:37:00,55.2,50.5,29.76,ESE,121,5.0,15.0,84,0.00,,SKC,0.00,47.00,VWS V14.00,2013-09-23 12:37:00,
2013-09-23 07:42:00,55.3,50.6,29.76,SE,139,9.0,21.0,84,0.00,,SKC,0.00,46.00,VWS V14.00,2013-09-23 12:42:00,
2013-09-23 07:47:00,55.4,50.7,29.76,SE,144,14.0,14.0,84,0.00,,SKC,0.00,44.00,VWS V14.00,2013-09-23 12:47:00,
2013-09-23 07:52:00,55.4,50.7,29.76,SSE,164,10.0,17.0,84,0.00,,SKC,0.00,69.00,VWS V14.00,2013-09-23 12:52:00,
2013-09-23 07:57:00,55.5,50.8,29.76,ESE,117,12.0,18.0,84,0.00,,SKC,0.00,72.00,VWS V14.00,2013-09-23 12:57:00,
2013-09-23 08:02:00,55.7,51.0,29.76,SE,124,11.0,15.0,84,0.00,,SKC,0.00,90.00,VWS V14.00,2013-09-23 13:02:00,
2013-09-23 08:07:00,55.8,50.7,29.76,SE,146,11.0,15.0,83,0.00,,SKC,0.00,104.00,VWS V14.00,2013-09-23 13:07:00,
2013-09-23 08:12:00,55.9,50.8,29.76,SE,139,10.0,17.0,83,0.00,,SKC,0.00,102.00,VWS V14.00,2013-09-23 13:12:00,
2013-09-23 08:17:00,56.0,50.9,29.76,SE,126,7.0,18.0,83,0.00,,SKC,0.00,111.00,VWS V14.00,2013-09-23 13:17:00,
2013-09-23 08:22:00,56.1,51.0,29.76,SSE,152,13.0,15.0,83,0.00,,SKC,0.00,141.00,VWS V14.00,2013-09-23 13:22:00,
2013-09-23 08:27:00,56.3,50.9,29.76,South,180,9.0,17.0,82,0.00,,SKC,0.00,149.00,VWS V14.00,2013-09-23 13:27:00,
2013-09-23 08:32:00,56.6,51.2,29.76,South,176,5.0,15.0,82,0.00,,SKC,0.00,158.00,VWS V14.00,2013-09-23 13:32:00,
2013-09-23 08:37:00,56.8,51.4,29.76,SE,136,9.0,17.0,82,0.00,,SKC,0.00,190.00,VWS V14.00,2013-09-23 13:37:00,
2013-09-23 08:42:00,57.1,51.7,29.76,SE,133,11.0,19.0,82,0.00,,SKC,0.00,234.00,VWS V14.00,2013-09-23 13:42:00,
2013-09-23 08:47:00,57.5,51.7,29.76,SSE,149,12.0,13.0,81,0.00,,SKC,0.00,204.00,VWS V14.00,2013-09-23 13:47:00,
2013-09-23 08:52:00,57.8,51.7,29.76,SE,146,10.0,19.0,80,0.00,,SKC,0.00,274.00,VWS V14.00,2013-09-23 13:52:00,
2013-09-23 08:57:00,58.2,52.1,29.76,SE,143,11.0,15.0,80,0.00,,SKC,0.00,271.00,VWS V14.00,2013-09-23 13:57:00,
2013-09-23 09:02:00,58.6,52.1,29.76,ESE,121,15.0,20.0,79,0.00,,SKC,0.00,287.00,VWS V14.00,2013-09-23 14:02:00,
2013-09-23 09:07:00,59.0,52.5,29.76,SSE,167,4.0,17.0,79,0.00,,SKC,0.00,299.00,VWS V14.00,2013-09-23 14:07:00,
2013-09-23 09:12:00,59.4,52.5,29.76,South,180,11.0,17.0,78,0.00,,SKC,0.00,308.00,VWS V14.00,2013-09-23 14:12:00,
2013-09-23 09:17:00,59.6,52.4,29.76,SSE,159,6.0,20.0,77,0.00,,SKC,0.00,276.00,VWS V14.00,2013-09-23 14:17:00,
2013-09-23 09:22:00,59.8,52.6,29.76,SE,125,10.0,18.0,77,0.00,,SKC,0.00,285.00,VWS V14.00,2013-09-23 14:22:00,
2013-09-23 09:27:00,59.9,52.3,29.76,SSE,157,10.0,20.0,76,0.00,,SKC,0.00,260.00,VWS V14.00,2013-09-23 14:27:00,
2013-09-23 09:32:00,60.0,53.1,29.76,SSE,157,12.0,14.0,78,0.00,,SKC,0.00,332.00,VWS V14.00,2013-09-23 14:32:00,
2013-09-23 09:38:00,60.3,52.7,29.76,SSE,155,7.0,16.0,76,0.00,,SKC,0.00,352.00,VWS V14.00,2013-09-23 14:38:00,
2013-09-23 09:43:00,60.6,52.6,29.76,ESE,123,12.0,19.0,75,0.00,,SKC,0.00,353.00,VWS V14.00,2013-09-23 14:43:00,
2013-09-23 09:48:00,60.8,53.2,29.76,SSE,160,7.0,17.0,76,0.00,,SKC,0.00,383.00,VWS V14.00,2013-09-23 14:48:00,
2013-09-23 09:53:00,61.0,53.4,29.76,South,175,5.0,21.0,76,0.00,,SKC,0.00,411.00,VWS V14.00,2013-09-23 14:53:00,
2013-09-23 09:58:00,61.5,53.5,29.76,South,177,15.0,20.0,75,0.00,,SKC,0.00,438.00,VWS V14.00,2013-09-23 14:58:00,
2013-09-23 10:03:00,61.9,53.9,29.76,SSE,159,10.0,18.0,75,0.00,,SKC,0.00,394.00,VWS V14.00,2013-09-23 15:03:00,
2013-09-23 10:08:00,62.2,53.5,29.76,SE,143,11.0,21.0,73,0.00,,SKC,0.00,434.00,VWS V14.00,2013-09-23 15:08:00,
2013-09-23 10:13:00,62.6,54.6,29.76,SE,138,12.0,12.0,75,0.00,,SKC,0.00,418.00,VWS V14.00,2013-09-23 15:13:00,
2013-09-23 10:18:00,62.9,54.5,29.76,SSE,148,11.0,23.0,74,0.00,,SKC,0.00,432.00,VWS V14.00,2013-09-23 15:18:00,
2013-09-23 10:23:00,63.1,54.3,29.75,SSE,159,13.0,16.0,73,0.00,,SKC,0.00,441.00,VWS V14.00,2013-09-23 15:23:00,
2013-09-23 10:28:00,63.3,54.5,29.75,SE,134,11.0,15.0,73,0.00,,SKC,0.00,464.00,VWS V14.00,2013-09-23 15:28:00,
2013-09-23 10:33:00,63.7,54.1,29.75,SE,140,16.0,20.0,71,0.00,,SKC,0.00,462.00,VWS V14.00,2013-09-23 15:33:00,
2013-09-23 10:38:00,63.9,54.3,29.75,SE,137,7.0,20.0,71,0.00,,SKC,0.00,508.00,VWS V14.00,2013-09-23 15:38:00,
2013-09-23 10:43:00,64.4,54.8,29.75,SE,129,15.0,17.0,71,0.00,,SKC,0.00,570.00,VWS V14.00,2013-09-23 15:43:00,
2013-09-23 10:48:00,64.8,54.4,29.75,SE,127,12.0,22.0,69,0.00,,SKC,0.00,520.00,VWS V14.00,2013-09-23 15:48:00,
2013-09-23 10:53:00,65.2,54.8,29.75,ESE,123,7.0,16.0,69,0.00,,SKC,0.00,557.00,VWS V14.00,2013-09-23 15:53:00,
2013-09-23 10:58:00,65.5,55.1,29.74,SE,141,15.0,21.0,69,0.00,,SKC,0.00,512.00,VWS V14.00,2013-09-23 15:58:00,
2013-09-23 11:03:00,65.7,54.9,29.74,SE,136,13.0,22.0,68,0.00,,SKC,0.00,503.00,VWS V14.00,2013-09-23 16:03:00,
2013-09-23 11:08:00,65.9,55.0,29.74,South,173,7.0,15.0,68,0.00,,SKC,0.00,487.00,VWS V14.00,2013-09-23 16:08:00,
2013-09-23 11:13:00,66.1,55.2,29.74,SE,132,9.0,24.0,68,0.00,,SKC,0.00,571.00,VWS V14.00,2013-09-23 16:13:00,
2013-09-23 11:18:00,66.4,55.1,29.75,SE,130,13.0,16.0,67,0.00,,SKC,0.00,628.00,VWS V14.00,2013-09-23 16:18:00,
2013-09-23 11:23:00,66.5,54.8,29.74,South,170,14.0,22.0,66,0.00,,SKC,0.00,596.00,VWS V14.00,2013-09-23 16:23:00,
2013-09-23 11:28:00,66.6,55.3,29.74,SSE,153,11.0,24.0,67,0.00,,SKC,0.00,598.00,VWS V14.00,2013-09-23 16:28:00,
2013-09-23 11:33:00,66.8,54.7,29.74,SSE,158,7.0,20.0,65,0.00,,SKC,0.00,506.00,VWS V14.00,2013-09-23 16:33:00,
2013-09-23 11:38:00,66.9,54.8,29.75,ESE,118,23.0,24.0,65,0.00,,SKC,0.00,563.00,VWS V14.00,2013-09-23 16:38:00,
2013-09-23 11:43:00,66.8,54.7,29.75,SE,134,11.0,22.0,65,0.00,,SKC,0.00,559.00,VWS V14.00,2013-09-23 16:43:00,
2013-09-23 11:48:00,67.0,55.3,29.74,SE,145,22.0,22.0,66,0.00,,SKC,0.00,603.00,VWS V14.00,2013-09-23 16:48:00,
2013-09-23 11:53:00,67.2,55.0,29.74,SSE,153,16.0,20.0,65,0.00,,SKC,0.00,427.00,VWS V14.00,2013-09-23 16:53:00,
2013-09-23 11:58:00,67.2,55.5,29.74,SE,136,10.0,21.0,66,0.00,,SKC,0.00,557.00,VWS V14.00,2013-09-23 16:58:00,
2013-09-23 12:03:00,67.6,55.0,29.74,South,186,10.0,23.0,64,0.00,,SKC,0.00,722.00,VWS V14.00,2013-09-23 17:03:00,
2013-09-23 12:08:00,67.9,54.8,29.74,SE,139,15.0,19.0,63,0.00,,SKC,0.00,629.00,VWS V14.00,2013-09-23 17:08:00,
2013-09-23 12:13:00,68.2,56.0,29.74,SSW,198,11.0,21.0,65,0.00,,SKC,0.00,738.00,VWS V14.00,2013-09-23 17:13:00,
2013-09-23 12:18:00,68.5,55.4,29.74,SSE,150,16.0,21.0,63,0.00,,SKC,0.00,679.00,VWS V14.00,2013-09-23 17:18:00,
2013-09-23 12:23:00,68.7,55.6,29.74,SE,136,16.0,21.0,63,0.00,,SKC,0.00,603.00,VWS V14.00,2013-09-23 17:23:00,
2013-09-23 12:28:00,68.9,55.8,29.73,ESE,122,11.0,23.0,63,0.00,,SKC,0.00,671.00,VWS V14.00,2013-09-23 17:28:00,
2013-09-23 12:33:00,69.3,56.2,29.74,SE,140,17.0,21.0,63,0.00,,SKC,0.00,663.00,VWS V14.00,2013-09-23 17:33:00,
2013-09-23 12:38:00,69.7,56.1,29.73,South,189,4.0,20.0,62,0.00,,SKC,0.00,617.00,VWS V14.00,2013-09-23 17:38:00,
2013-09-23 12:43:00,70.1,56.0,29.73,SE,130,12.0,22.0,61,0.00,,SKC,0.00,745.00,VWS V14.00,2013-09-23 17:43:00,
2013-09-23 12:48:00,70.4,56.3,29.73,SE,136,20.0,20.0,61,0.00,,SKC,0.00,728.00,VWS V14.00,2013-09-23 17:48:00,
2013-09-23 12:53:00,70.4,55.9,29.73,SE,142,13.0,22.0,60,0.00,,SKC,0.00,613.00,VWS V14.00,2013-09-23 17:53:00,
2013-09-23 12:58:00,70.6,56.5,29.73,SSW,197,5.0,20.0,61,0.00,,SKC,0.00,691.00,VWS V14.00,2013-09-23 17:58:00,
2013-09-23 13:03:00,70.8,56.2,29.73,SE,132,6.0,21.0,60,0.00,,SKC,0.00,742.00,VWS V14.00,2013-09-23 18:03:00,
2013-09-23 13:08:00,71.2,56.6,29.73,SSE,163,14.0,22.0,60,0.00,,SKC,0.00,724.00,VWS V14.00,2013-09-23 18:08:00,
2013-09-23 13:13:00,71.5,55.5,29.72,SE,130,12.0,22.0,57,0.00,,SKC,0.00,708.00,VWS V14.00,2013-09-23 18:13:00,
2013-09-23 13:18:00,71.6,56.5,29.73,SE,144,11.0,21.0,59,0.00,,SKC,0.00,680.00,VWS V14.00,2013-09-23 18:18:00,
2013-09-23 13:23:00,71.6,55.6,29.72,SE,145,15.0,25.0,57,0.00,,SKC,0.00,721.00,VWS V14.00,2013-09-23 18:23:00,
2013-09-23 13:28:00,71.6,55.6,29.72,SE,134,12.0,23.0,57,0.00,,SKC,0.00,717.00,VWS V14.00,2013-09-23 18:28:00,
2013-09-23 13:33:00,71.7,55.7,29.72,SE,146,12.0,22.0,57,0.00,,SKC,0.00,705.00,VWS V14.00,2013-09-23 18:33:00,
2013-09-23 13:38:00,71.8,56.2,29.72,SE,128,14.0,19.0,58,0.00,,SKC,0.00,705.00,VWS V14.00,2013-09-23 18:38:00,
2013-09-23 13:43:00,72.1,56.0,29.72,SSE,161,11.0,19.0,57,0.00,,SKC,0.00,701.00,VWS V14.00,2013-09-23 18:43:00,
2013-09-23 13:48:00,72.2,55.7,29.72,East,96,14.0,29.0,56,0.00,,SKC,0.00,698.00,VWS V14.00,2013-09-23 18:48:00,
2013-09-23 13:53:00,72.2,55.7,29.72,SE,132,13.0,20.0,56,0.00,,SKC,0.00,689.00,VWS V14.00,2013-09-23 18:53:00,
2013-09-23 13:58:00,72.2,55.7,29.72,SE,126,9.0,20.0,56,0.00,,SKC,0.00,694.00,VWS V14.00,2013-09-23 18:58:00,
2013-09-23 14:03:00,72.7,55.6,29.71,SE,132,11.0,15.0,55,0.00,,SKC,0.00,687.00,VWS V14.00,2013-09-23 19:03:00,
2013-09-23 14:08:00,72.9,55.8,29.71,SE,142,14.0,19.0,55,0.00,,SKC,0.00,686.00,VWS V14.00,2013-09-23 19:08:00,
2013-09-23 14:13:00,73.0,55.4,29.71,SSE,154,10.0,20.0,54,0.00,,SKC,0.00,680.00,VWS V14.00,2013-09-23 19:13:00,
2013-09-23 14:18:00,73.1,55.5,29.71,SSE,161,14.0,22.0,54,0.00,,SKC,0.00,649.00,VWS V14.00,2013-09-23 19:18:00,
2013-09-23 14:23:00,73.0,55.4,29.71,ESE,123,13.0,22.0,54,0.00,,SKC,0.00,671.00,VWS V14.00,2013-09-23 19:23:00,
2013-09-23 14:28:00,73.1,55.5,29.71,South,177,6.0,23.0,54,0.00,,SKC,0.00,677.00,VWS V14.00,2013-09-23 19:28:00,
2013-09-23 14:33:00,73.3,55.2,29.71,ESE,115,8.0,18.0,53,0.00,,SKC,0.00,671.00,VWS V14.00,2013-09-23 19:33:00,
2013-09-23 14:38:00,73.5,55.9,29.71,SE,128,10.0,17.0,54,0.00,,SKC,0.00,613.00,VWS V14.00,2013-09-23 19:38:00,
2013-09-23 14:43:00,73.7,56.5,29.71,South,170,12.0,19.0,55,0.00,,SKC,0.00,457.00,VWS V14.00,2013-09-23 19:43:00,
2013-09-23 14:48:00,73.4,56.3,29.71,ESE,121,9.0,19.0,55,0.00,,SKC,0.00,577.00,VWS V14.00,2013-09-23 19:48:00,
2013-09-23 14:53:00,73.2,57.1,29.71,ESE,122,20.0,21.0,57,0.00,,SKC,0.00,580.00,VWS V14.00,2013-09-23 19:53:00,
2013-09-23 14:58:00,73.3,56.7,29.71,SE,135,14.0,20.0,56,0.00,,SKC,0.00,561.00,VWS V14.00,2013-09-23 19:58:00,
2013-09-23 15:03:00,73.4,57.3,29.70,SSE,149,9.0,14.0,57,0.00,,SKC,0.00,439.00,VWS V14.00,2013-09-23 20:03:00,
2013-09-23 15:08:00,73.4,56.8,29.70,SSE,162,11.0,19.0,56,0.00,,SKC,0.00,431.00,VWS V14.00,2013-09-23 20:08:00,
2013-09-23 15:13:00,73.3,56.2,29.70,SSE,148,14.0,18.0,55,0.00,,SKC,0.00,454.00,VWS V14.00,2013-09-23 20:13:00,
2013-09-23 15:18:00,73.3,56.2,29.70,South,185,10.0,23.0,55,0.00,,SKC,0.00,570.00,VWS V14.00,2013-09-23 20:18:00,
2013-09-23 15:23:00,73.5,56.4,29.70,South,186,11.0,18.0,55,0.00,,SKC,0.00,642.00,VWS V14.00,2013-09-23 20:23:00,
2013-09-23 15:28:00,73.7,55.5,29.70,SE,130,6.0,18.0,53,0.00,,SKC,0.00,592.00,VWS V14.00,2013-09-23 20:28:00,
2013-09-23 15:33:00,73.9,56.7,29.70,SE,126,11.0,17.0,55,0.00,,SKC,0.00,526.00,VWS V14.00,2013-09-23 20:33:00,
2013-09-23 15:38:00,73.8,55.6,29.70,SE,139,10.0,20.0,53,0.00,,SKC,0.00,615.00,VWS V14.00,2013-09-23 20:38:00,
2013-09-23 15:43:00,73.7,56.0,29.70,SE,125,10.0,15.0,54,0.00,,SKC,0.00,320.00,VWS V14.00,2013-09-23 20:43:00,
2013-09-23 15:48:00,73.3,56.2,29.70,SSE,149,13.0,20.0,55,0.00,,SKC,0.00,517.00,VWS V14.00,2013-09-23 20:48:00,
2013-09-23 15:53:00,73.3,56.2,29.70,SSE,150,16.0,22.0,55,0.00,,SKC,0.00,552.00,VWS V14.00,2013-09-23 20:53:00,
2013-09-23 15:58:00,73.6,55.4,29.70,SE,131,7.0,20.0,53,0.00,,SKC,0.00,497.00,VWS V14.00,2013-09-23 20:58:00,
2013-09-23 16:03:00,73.9,55.2,29.70,SSE,156,9.0,17.0,52,0.00,,SKC,0.00,360.00,VWS V14.00,2013-09-23 21:03:00,
2013-09-23 16:08:00,73.6,54.4,29.70,SE,144,12.0,18.0,51,0.00,,SKC,0.00,315.00,VWS V14.00,2013-09-23 21:08:00,
2013-09-23 16:13:00,73.2,55.1,29.70,SSE,152,11.0,21.0,53,0.00,,SKC,0.00,448.00,VWS V14.00,2013-09-23 21:13:00,
2013-09-23 16:18:00,73.2,54.5,29.70,SSE,157,14.0,22.0,52,0.00,,SKC,0.00,527.00,VWS V14.00,2013-09-23 21:18:00,
2013-09-23 16:23:00,73.4,54.7,29.70,SE,127,9.0,20.0,52,0.00,,SKC,0.00,436.00,VWS V14.00,2013-09-23 21:23:00,
2013-09-23 16:28:00,73.5,54.3,29.70,ESE,111,11.0,18.0,51,0.00,,SKC,0.00,332.00,VWS V14.00,2013-09-23 21:28:00,
2013-09-23 16:33:00,73.5,54.3,29.70,SE,127,5.0,16.0,51,0.00,,SKC,0.00,436.00,VWS V14.00,2013-09-23 21:33:00,
2013-09-23 16:38:00,73.4,55.8,29.70,East,99,11.0,21.0,54,0.00,,SKC,0.00,369.00,VWS V14.00,2013-09-23 21:38:00,
2013-09-23 16:43:00,73.3,56.2,29.70,SE,124,7.0,16.0,55,0.00,,SKC,0.00,385.00,VWS V14.00,2013-09-23 21:43:00,
2013-09-23 16:50:00,73.2,56.1,29.70,ESE,118,14.0,18.0,55,0.00,,SKC,0.00,397.00,VWS V14.00,2013-09-23 21:50:00,
2013-09-23 16:55:00,73.2,55.6,29.70,SSE,160,12.0,17.0,54,0.00,,SKC,0.00,329.00,VWS V14.00,2013-09-23 21:55:00,
2013-09-23 17:00:00,73.2,55.1,29.70,SE,134,13.0,15.0,53,0.00,,SKC,0.00,357.00,VWS V14.00,2013-09-23 22:00:00,
2013-09-23 17:05:00,73.3,55.2,29.71,SSE,163,11.0,13.0,53,0.00,,SKC,0.00,334.00,VWS V14.00,2013-09-23 22:05:00,
2013-09-23 17:10:00,73.4,54.7,29.71,SSE,161,12.0,18.0,52,0.00,,SKC,0.00,318.00,VWS V14.00,2013-09-23 22:10:00,
2013-09-23 17:15:00,73.4,55.2,29.71,SE,128,12.0,18.0,53,0.00,,SKC,0.00,304.00,VWS V14.00,2013-09-23 22:15:00,
2013-09-23 17:20:00,73.3,54.6,29.71,SE,142,13.0,19.0,52,0.00,,SKC,0.00,287.00,VWS V14.00,2013-09-23 22:20:00,
2013-09-23 17:25:00,73.1,54.5,29.71,SE,131,11.0,15.0,52,0.00,,SKC,0.00,269.00,VWS V14.00,2013-09-23 22:25:00,
2013-09-23 17:30:00,73.1,55.0,29.71,SE,124,9.0,12.0,53,0.00,,SKC,0.00,251.00,VWS V14.00,2013-09-23 22:30:00,
2013-09-23 17:35:00,73.0,54.9,29.71,SE,128,10.0,14.0,53,0.00,,SKC,0.00,236.00,VWS V14.00,2013-09-23 22:35:00,
2013-09-23 17:40:00,73.0,54.4,29.72,SE,126,11.0,18.0,52,0.00,,SKC,0.00,214.00,VWS V14.00,2013-09-23 22:40:00,
2013-09-23 17:45:00,72.9,54.3,29.72,SE,134,13.0,19.0,52,0.00,,SKC,0.00,193.00,VWS V14.00,2013-09-23 22:45:00,
2013-09-23 17:50:00,72.8,54.7,29.72,SSE,157,10.0,14.0,53,0.00,,SKC,0.00,174.00,VWS V14.00,2013-09-23 22:50:00,
2013-09-23 17:55:00,72.7,54.6,29.72,SSE,159,5.0,15.0,53,0.00,,SKC,0.00,160.00,VWS V14.00,2013-09-23 22:55:00,
2013-09-23 18:00:00,72.6,54.5,29.72,SE,130,13.0,16.0,53,0.00,,SKC,0.00,139.00,VWS V14.00,2013-09-23 23:00:00,
2013-09-23 18:05:00,72.5,54.9,29.72,SE,127,11.0,12.0,54,0.00,,SKC,0.00,121.00,VWS V14.00,2013-09-23 23:05:00,
2013-09-23 18:10:00,72.3,54.2,29.72,SE,127,6.0,17.0,53,0.00,,SKC,0.00,107.00,VWS V14.00,2013-09-23 23:10:00,
2013-09-23 18:15:00,72.2,54.7,29.72,SE,126,15.0,15.0,54,0.00,,SKC,0.00,91.00,VWS V14.00,2013-09-23 23:15:00,
2013-09-23 18:20:00,72.0,55.0,29.72,ESE,115,7.0,11.0,55,0.00,,SKC,0.00,76.00,VWS V14.00,2013-09-23 23:20:00,
2013-09-23 18:25:00,71.7,54.2,29.72,SE,144,4.0,13.0,54,0.00,,SKC,0.00,42.00,VWS V14.00,2013-09-23 23:25:00,
2013-09-23 18:30:00,71.3,54.3,29.72,SE,132,4.0,14.0,55,0.00,,SKC,0.00,32.00,VWS V14.00,2013-09-23 23:30:00,
2013-09-23 18:35:00,70.9,54.4,29.72,SSE,166,6.0,16.0,56,0.00,,SKC,0.00,23.00,VWS V14.00,2013-09-23 23:35:00,
2013-09-23 18:40:00,70.5,54.1,29.72,SE,134,10.0,16.0,56,0.00,,SKC,0.00,21.00,VWS V14.00,2013-09-23 23:40:00,
2013-09-23 18:45:00,70.3,54.8,29.72,ESE,115,4.0,12.0,58,0.00,,SKC,0.00,19.00,VWS V14.00,2013-09-23 23:45:00,
2013-09-23 18:50:00,69.9,54.9,29.72,ESE,122,7.0,11.0,59,0.00,,SKC,0.00,18.00,VWS V14.00,2013-09-23 23:50:00,
2013-09-23 18:55:00,69.7,54.8,29.72,ESE,117,9.0,12.0,59,0.00,,SKC,0.00,16.00,VWS V14.00,2013-09-23 23:55:00,
2013-09-23 19:00:00,69.5,55.0,29.72,ESE,120,6.0,13.0,60,0.00,,SKC,0.00,12.00,VWS V14.00,2013-09-24 00:00:00,
2013-09-23 19:05:00,69.3,54.8,29.72,ESE,117,3.0,14.0,60,0.00,,SKC,0.00,7.00,VWS V14.00,2013-09-24 00:05:00,
2013-09-23 19:10:00,69.0,55.0,29.72,East,100,9.0,11.0,61,0.00,,SKC,0.00,5.00,VWS V14.00,2013-09-24 00:10:00,
2013-09-23 19:15:00,68.7,54.7,29.72,SSE,148,10.0,10.0,61,0.00,,SKC,0.00,0.00,VWS V14.00,2013-09-24 00:15:00,
2013-09-23 19:20:00,68.5,55.0,29.73,ESE,117,5.0,10.0,62,0.00,,SKC,0.00,0.00,VWS V14.00,2013-09-24 00:20:00,
2013-09-23 19:25:00,68.2,54.7,29.73,SE,140,8.0,12.0,62,0.00,,SKC,0.00,0.00,VWS V14.00,2013-09-24 00:25:00,
2013-09-23 19:30:00,67.9,54.8,29.73,ESE,118,3.0,12.0,63,0.00,,SKC,0.00,0.00,VWS V14.00,2013-09-24 00:30:00,
2013-09-23 19:35:00,67.6,54.6,29.74,ESE,118,4.0,9.0,63,0.00,,SKC,0.00,0.00,VWS V14.00,2013-09-24 00:35:00,
2013-09-23 19:40:00,67.2,54.6,29.74,East,98,5.0,9.0,64,0.00,,SKC,0.00,0.00,VWS V14.00,2013-09-24 00:40:00,
2013-09-23 19:45:00,66.8,54.7,29.74,SE,129,5.0,6.0,65,0.00,,SKC,0.00,0.00,VWS V14.00,2013-09-24 00:45:00,
2013-09-23 19:50:00,66.5,54.8,29.74,ESE,113,3.0,8.0,66,0.00,,SKC,0.00,0.00,VWS V14.00,2013-09-24 00:50:00,
2013-09-23 19:56:00,66.1,54.8,29.74,SE,139,6.0,9.0,67,0.00,,SKC,0.00,0.00,VWS V14.00,2013-09-24 00:56:00,
2013-09-23 20:01:00,65.9,55.0,29.74,ESE,117,9.0,9.0,68,0.00,,SKC,0.00,0.00,VWS V14.00,2013-09-24 01:01:00,
2013-09-23 20:06:00,65.6,54.8,29.74,SE,146,6.0,12.0,68,0.00,,SKC,0.00,0.00,VWS V14.00,2013-09-24 01:06:00,
2013-09-23 20:11:00,65.5,54.7,29.74,SE,138,5.0,12.0,68,0.00,,SKC,0.00,0.00,VWS V14.00,2013-09-24 01:11:00,
2013-09-23 20:16:00,65.4,54.6,29.75,ESE,111,7.0,11.0,68,0.00,,SKC,0.00,0.00,VWS V14.00,2013-09-24 01:16:00,
2013-09-23 20:21:00,65.4,54.6,29.75,ESE,113,6.0,13.0,68,0.00,,SKC,0.00,0.00,VWS V14.00,2013-09-24 01:21:00,
2013-09-23 20:26:00,65.3,54.5,29.75,SSE,148,7.0,11.0,68,0.00,,SKC,0.00,0.00,VWS V14.00,2013-09-24 01:26:00,
2013-09-23 20:31:00,65.3,54.5,29.75,SE,146,6.0,11.0,68,0.00,,SKC,0.00,0.00,VWS V14.00,2013-09-24 01:31:00,
2013-09-23 20:36:00,65.3,54.5,29.75,SE,128,10.0,13.0,68,0.00,,SKC,0.00,0.00,VWS V14.00,2013-09-24 01:36:00,
2013-09-23 20:41:00,65.3,54.1,29.75,SE,130,5.0,11.0,67,0.00,,SKC,0.00,0.00,VWS V14.00,2013-09-24 01:41:00,
2013-09-23 20:46:00,65.3,54.1,29.75,SE,129,11.0,13.0,67,0.00,,SKC,0.00,0.00,VWS V14.00,2013-09-24 01:46:00,
2013-09-23 20:51:00,65.4,54.2,29.76,SSE,148,6.0,12.0,67,0.00,,SKC,0.00,0.00,VWS V14.00,2013-09-24 01:51:00,
2013-09-23 20:56:00,65.3,53.7,29.76,SE,131,10.0,17.0,66,0.00,,SKC,0.00,0.00,VWS V14.00,2013-09-24 01:56:00,
2013-09-23 21:01:00,65.3,53.7,29.76,SSE,157,7.0,13.0,66,0.00,,SKC,0.00,0.00,VWS V14.00,2013-09-24 02:01:00,
2013-09-23 21:06:00,65.3,53.7,29.76,SSE,151,9.0,12.0,66,0.00,,SKC,0.00,0.00,VWS V14.00,2013-09-24 02:06:00,
2013-09-23 21:11:00,65.2,53.6,29.76,SE,128,6.0,11.0,66,0.00,,SKC,0.00,0.00,VWS V14.00,2013-09-24 02:11:00,
2013-09-23 21:16:00,65.1,53.5,29.76,SE,132,6.0,12.0,66,0.00,,SKC,0.00,0.00,VWS V14.00,2013-09-24 02:16:00,
2013-09-23 21:21:00,65.0,53.4,29.76,SE,127,11.0,12.0,66,0.00,,SKC,0.00,0.00,VWS V14.00,2013-09-24 02:21:00,
2013-09-23 21:26:00,64.9,53.7,29.76,SE,141,9.0,13.0,67,0.00,,SKC,0.00,0.00,VWS V14.00,2013-09-24 02:26:00,
2013-09-23 21:31:00,64.7,53.5,29.76,SE,138,7.0,13.0,67,0.00,,SKC,0.00,0.00,VWS V14.00,2013-09-24 02:31:00,
2013-09-23 21:36:00,64.6,53.4,29.76,ESE,122,10.0,11.0,67,0.00,,SKC,0.00,0.00,VWS V14.00,2013-09-24 02:36:00,
2013-09-23 21:41:00,64.5,53.3,29.76,SE,134,10.0,14.0,67,0.00,,SKC,0.00,0.00,VWS V14.00,2013-09-24 02:41:00,
2013-09-23 21:46:00,64.3,53.1,29.77,SE,128,5.0,16.0,67,0.00,,SKC,0.00,0.00,VWS V14.00,2013-09-24 02:46:00,
2013-09-23 21:51:00,64.2,53.4,29.77,ESE,110,9.0,14.0,68,0.00,,SKC,0.00,0.00,VWS V14.00,2013-09-24 02:51:00,
2013-09-23 21:56:00,64.1,53.3,29.77,SE,140,11.0,14.0,68,0.00,,SKC,0.00,0.00,VWS V14.00,2013-09-24 02:56:00,
2013-09-23 22:01:00,63.9,53.1,29.77,SSE,159,14.0,16.0,68,0.00,,SKC,0.00,0.00,VWS V14.00,2013-09-24 03:01:00,
2013-09-23 22:06:00,63.9,53.1,29.77,SE,132,12.0,15.0,68,0.00,,SKC,0.00,0.00,VWS V14.00,2013-09-24 03:06:00,
2013-09-23 22:11:00,63.8,53.0,29.77,SE,138,10.0,14.0,68,0.00,,SKC,0.00,0.00,VWS V14.00,2013-09-24 03:11:00,
2013-09-23 22:16:00,63.7,53.3,29.77,SE,146,9.0,15.0,69,0.00,,SKC,0.00,0.00,VWS V14.00,2013-09-24 03:16:00,
2013-09-23 22:21:00,63.6,53.3,29.77,ESE,123,10.0,14.0,69,0.00,,SKC,0.00,0.00,VWS V14.00,2013-09-24 03:21:00,
2013-09-23 22:26:00,63.5,53.2,29.77,East,99,6.0,14.0,69,0.00,,SKC,0.00,0.00,VWS V14.00,2013-09-24 03:26:00,
2013-09-23 22:31:00,63.3,53.0,29.78,SE,138,10.0,19.0,69,0.00,,SKC,0.00,0.00,VWS V14.00,2013-09-24 03:31:00,
2013-09-23 22:36:00,63.2,52.9,29.78,South,169,9.0,15.0,69,0.00,,SKC,0.00,0.00,VWS V14.00,2013-09-24 03:36:00,
2013-09-23 22:41:00,63.1,53.2,29.78,ESE,118,10.0,11.0,70,0.00,,SKC,0.00,0.00,VWS V14.00,2013-09-24 03:41:00,
2013-09-23 22:46:00,63.0,53.1,29.78,SSE,149,7.0,14.0,70,0.00,,SKC,0.00,0.00,VWS V14.00,2013-09-24 03:46:00,
2013-09-23 22:51:00,62.9,53.0,29.78,SSE,148,6.0,13.0,70,0.00,,SKC,0.00,0.00,VWS V14.00,2013-09-24 03:51:00,
2013-09-23 22:56:00,62.7,53.2,29.78,ESE,115,10.0,13.0,71,0.00,,SKC,0.00,0.00,VWS V14.00,2013-09-24 03:56:00,
2013-09-23 23:01:00,62.5,53.0,29.78,East,96,9.0,16.0,71,0.00,,SKC,0.00,0.00,VWS V14.00,2013-09-24 04:01:00,
2013-09-23 23:03:00,62.4,52.9,29.78,East,101,10.0,17.0,71,0.00,,SKC,0.00,0.00,VWS V14.00,2013-09-24 04:03:00,
2013-09-23 23:08:00,62.4,52.9,29.78,SE,137,9.0,18.0,71,0.00,,SKC,0.00,0.00,VWS V14.00,2013-09-24 04:08:00,
2013-09-23 23:11:00,62.3,53.2,29.78,ESE,117,7.0,15.0,72,0.00,,SKC,0.00,0.00,VWS V14.00,2013-09-24 04:11:00,
2013-09-23 23:16:00,62.2,53.1,29.78,SE,128,9.0,16.0,72,0.00,,SKC,0.00,0.00,VWS V14.00,2013-09-24 04:16:00,
2013-09-23 23:21:00,62.2,53.1,29.78,SE,140,5.0,13.0,72,0.00,,SKC,0.00,0.00,VWS V14.00,2013-09-24 04:21:00,
2013-09-23 23:27:00,62.0,52.9,29.78,ESE,109,11.0,15.0,72,0.00,,SKC,0.00,0.00,VWS V14.00,2013-09-24 04:27:00,
2013-09-23 23:32:00,61.9,52.8,29.78,SE,142,9.0,15.0,72,0.00,,SKC,0.00,0.00,VWS V14.00,2013-09-24 04:32:00,
2013-09-23 23:37:00,61.8,52.7,29.79,SE,130,10.0,16.0,72,0.00,,SKC,0.00,0.00,VWS V14.00,2013-09-24 04:37:00,
2013-09-23 23:42:00,61.7,53.0,29.79,SE,141,10.0,14.0,73,0.00,,SKC,0.00,0.00,VWS V14.00,2013-09-24 04:42:00,
2013-09-23 23:47:00,61.5,52.8,29.79,SE,135,9.0,15.0,73,0.00,,SKC,0.00,0.00,VWS V14.00,2013-09-24 04:47:00,
2013-09-23 23:52:00,61.3,52.6,29.79,SE,130,5.0,16.0,73,0.00,,SKC,0.00,0.00,VWS V14.00,2013-09-24 04:52:00,
2013-09-23 23:57:00,61.1,52.8,29.79,SE,141,9.0,13.0,74,0.00,,SKC,0.00,0.00,VWS V14.00,2013-09-24 04:57:00,